User: anonymous   Login
Location: Clanezzo
(45.7500°N, 9.6000°E)
Time: 13:50:37
(UTC+00:00)
Language:

RS-15 - Orbit

View from above orbital plane
View from above orbital plane
View from above satellite
View from above satellite

Ground track
Ground track

The orbit data is extracted from the following two-line orbital elements,

1 23439U 94085A   22176.91114159 -.00000039  00000-0  10000-3 0  9993
2 23439  64.8153 131.9350 0168157 271.0765  87.0894 11.27572683132440
Epoch (UTC): 25 June 2022 21:52:02
Eccentricity: 0.0168157
inclination: 64.8153°
perigee height: 1881 km
apogee height: 2163 km
right ascension of ascending node: 131.9350°
argument of perigee: 271.0765°
revolutions per day: 11.27572683
mean anomaly at epoch: 87.0894°
orbit number at epoch: 13244

The dashed part of the orbit path shows where the satellite is in the earth's shadow,  

DLR